Find Starlink 34538

NORAD ID: 64689 Int'l Des: 2025-139 Owner: SPXS Country: US Constellation: starlink operational
LEOCIRCULAR

現在のビュー

3D地球を読み込み中...

Starlink 34538について

説明を読み込み中...

次回通過

Passes for default location (London). Set your location on the main map for personalized predictions.

高度履歴

Loading altitude history...

軌道要素

1 64689U 25139AB 26146.19991209 .00033556 00000-0 99962-3 0 9992
2 64689 53.1598 126.1315 0001084 105.0159 255.0963 15.34406585 52164
Epoch: May 26, 2026 • Age: 11 hours

現在のステータス

高度 467.3 km
速度 7.64 km/s
衛星直下点 48.25°N, 119.7°E
打ち上げ日 Jun 28, 2025
運用期間 0.9 years
タイプ internet

技術仕様

分類 Payload
質量 575.00 kg
乾燥質量 530.00 kg
総質量 575.00 kg
長さ 0.30 m
直径 4.10 m
スパン 29.00 m
形状 Box + pan
製造者 SPXS
バスタイプ Starlink V2MO
フェーズステータス In Orbit
所有者/国 SPXS/US

Most Searched